Weather Roundup
Issued by NWS Chicago, IL

Home | Current Version | Previous Version | Graphics & Text | Print | Product List | Glossary On
Versions: 1 2 3 4 5 6 7 8 9 10 11 12 13 14 15 16 17 18 19 20 21 22 23 24 25 26 27 28 29 30 31 32 33 34 35 36 37 38 39 40 41 42 43 44 45 46 47 48 49 50
000
NZUS59 KLOT 251202
HRRLOT

CHICAGO AREA WEATHER ROUNDUP
NATIONAL WEATHER SERVICE CHICAGO/ROMEOVILLE IL
700 AM CDT MON MAY 25 2015

NOTE: "FAIR" INDICATES FEW OR NO CLOUDS BELOW 12,000 FEET WITH NO
SIGNIFICANT WEATHER AND/OR OBSTRUCTIONS TO VISIBILITY.

* THESE STATIONS ARE NOT UNDER NWS QUALITY CONTROL. THEY ALSO MAY NOT
  REPORT WEATHER SUCH AS PRECIPITATION OR FOG.

ILZ005-006-012>014-019>023-251300-
NORTHEAST ILLINOIS

CITY           SKY/WX    TMP DP  RH WIND       PRES   REMARKS
OHARE          CLOUDY    70  62  76 S21G28    29.84R
6HR MIN TEMP:  70; 6HR MAX TEMP:  73;

MIDWAY         CLOUDY    72  65  78 S14G28    29.85F
6HR MIN TEMP:  72; 6HR MAX TEMP:  76; 6HR PCP: TRACE;

AURORA         CLOUDY    69  62  78 S18       29.84R
6HR MIN TEMP:  67; 6HR MAX TEMP:  73; 6HR PCP: TRACE;

WAUKEGAN       CLOUDY    70  62  76 S20G30    29.82S
6HR MIN TEMP:  66; 6HR MAX TEMP:  71;

DUPAGE AIRPORT CLOUDY    69  63  81 S22G32    29.83S
6HR MIN TEMP:  67; 6HR MAX TEMP:  73; 6HR PCP: TRACE;

WHEELING       CLOUDY    71  62  73 S17G31    29.85S
6HR MIN TEMP:  68; 6HR MAX TEMP:  73;

NORTHERLY IS     N/A     70  63  78 S17         N/A
$$

WIZ051-052-058>065-066-070>072-251300-
SOUTHEAST WISCONSIN

CITY           SKY/WX    TMP DP  RH WIND       PRES   REMARKS
MILWAUKEE      CLOUDY    61  58  90 S8        29.82S
6HR MIN TEMP:  54; 6HR MAX TEMP:  62; 6HR PCP:  0.03;

KENOSHA*       CLOUDY    70  63  78 S16G26    29.82S
RACINE*        CLOUDY    59  55  87 SE5       29.83F
WAUKESHA       CLOUDY    63  63 100 SE8       29.81S FOG
$$

INZ001>003-010>013-019-020-251300-
NORTHWEST INDIANA

CITY           SKY/WX    TMP DP  RH WIND       PRES   REMARKS
GARY*          LGT RAIN  73  66  78 S14G25    29.88F
MICHIGAN CITY* NOT AVBL
RENSSELAER*    NOT AVBL
$$

LMZ740>746-251300-
SOUTHERN LAKE MICHIGAN

STATION/POSITION TIME  SKY/WX   TEMP WIND        PRES    VSBY
                                AIR  DIR/SP/G
                 (UTC)          (F)  (DEG/KT/KT) (MB)    (MI)
HARRISON CRIB    1100            69  190/ 29/ 33   N/A
BURNHAM HARBOR   1200            70  180/  8/ 21   N/A
CALUMET HARBOR   1100            71  180/ 15/ 21   N/A
BURNS HARBOR     1100            71  180/ 12/ 18 1012.5S
MICHIGAN CITY    1100            72  160/ 14/ 20   N/A
$$

ABBREVIATIONS USED IN REMARKS
   TC - TEMPERATURE IN CELSIUS
  WCI - WIND CHILL INDEX
   HX - HEAT INDEX
  VSB - VISIBILITY
$$


USA.gov is the U.S. government's official web portal to all federal, state and local government web resources and services.